{"data":{"norad_id":51841,"epoch":"2026-06-04T13:42:03.354624Z","epoch_age_seconds":9443879,"freshness":"OLD","line1":"1 51841U 22019T   26155.57087216  .05427683  24856-5  80359-3 0  9991","line2":"2 51841  97.3493 253.4173 0013636 262.3725  97.6023 16.34228631238137","mean_motion":16.34228631,"eccentricity":0.0013636,"inclination_deg":97.3493,"raan_deg":253.4173,"arg_perigee_deg":262.3725,"mean_anomaly_deg":97.6023,"bstar":0.00080359,"rev_number":23813,"period_min":88.114965842867,"perigee_km":172.25599645976,"apogee_km":190.14462116836,"semimajor_km":6559.3373088141,"source":"CELESTRAK","updated_at":"2026-06-05T09:00:15.619864Z"}}